{"data":{"norad_id":56339,"epoch":"2026-09-20T22:00:03.000096Z","epoch_age_seconds":72578,"freshness":"FRESH","line1":"1 56339U 23058Y   26263.91670139  .00664542  00000+0  33878-1 0  9995","line2":"2 56339  97.2850 257.8524 0001720  84.0057 176.8018 15.14412926  5793","mean_motion":15.14412926,"eccentricity":0.000172,"inclination_deg":97.285,"raan_deg":257.8524,"arg_perigee_deg":84.0057,"mean_anomaly_deg":176.8018,"bstar":0.033878,"rev_number":579,"period_min":95.086351633531,"perigee_km":521.57448768332,"apogee_km":523.94839674745,"semimajor_km":6900.8984422154,"source":"CELESTRAK","updated_at":"2026-09-21T09:00:33.404893Z"}}